Year,Month,Day,Hour,Minute,Value (Times are PST for temperature in C)
2009,02,20,00,00,-0.60
2009,02,20,00,01,-0.70
2009,02,20,00,02,-0.70
2009,02,20,00,03,-0.70
2009,02,20,00,04,-0.80
2009,02,20,00,05,-0.80
2009,02,20,00,06,-0.80
2009,02,20,00,07,-0.80
2009,02,20,00,08,-0.80
2009,02,20,00,09,-0.80
2009,02,20,00,10,-0.80
2009,02,20,00,11,-0.80
2009,02,20,00,12,-0.80
2009,02,20,00,13,-0.90
2009,02,20,00,14,-0.90
2009,02,20,00,15,-0.90
2009,02,20,00,16,-0.90
2009,02,20,00,17,-0.90
2009,02,20,00,18,-0.90
2009,02,20,00,19,-0.90
2009,02,20,00,20,-1.00
2009,02,20,00,21,-1.10
2009,02,20,00,22,-1.10
2009,02,20,00,23,-1.10
2009,02,20,00,24,-1.10
2009,02,20,00,25,-1.10
2009,02,20,00,26,-1.10
2009,02,20,00,27,-1.10
2009,02,20,00,28,-1.10
2009,02,20,00,29,-1.10
2009,02,20,00,30,-1.10
2009,02,20,00,31,-1.20
2009,02,20,00,32,-1.20
2009,02,20,00,33,-1.20
2009,02,20,00,34,-1.30
2009,02,20,00,35,-1.30
2009,02,20,00,36,-1.30
2009,02,20,00,37,-1.30
2009,02,20,00,38,-1.30
2009,02,20,00,39,-1.40
2009,02,20,00,40,-1.40
2009,02,20,00,41,-1.40
2009,02,20,00,42,-1.40
2009,02,20,00,43,-1.40
2009,02,20,00,44,-1.40
2009,02,20,00,45,-1.40
2009,02,20,00,46,-1.40
2009,02,20,00,47,-1.40
2009,02,20,00,48,-1.40
2009,02,20,00,49,-1.40
2009,02,20,00,50,-1.40
2009,02,20,00,51,-1.30
2009,02,20,00,52,-1.30
2009,02,20,00,53,-1.30
2009,02,20,00,54,-1.30
2009,02,20,00,55,-1.30
2009,02,20,00,56,-1.40
2009,02,20,00,57,-1.40
2009,02,20,00,58,-1.40
2009,02,20,00,59,-1.40
2009,02,20,01,00,-1.40
2009,02,20,01,01,-1.40
2009,02,20,01,02,-1.40
2009,02,20,01,03,-1.40
2009,02,20,01,04,-1.40
2009,02,20,01,05,-1.40
2009,02,20,01,06,-1.40
2009,02,20,01,07,-1.40
2009,02,20,01,08,-1.40
2009,02,20,01,09,-1.40
2009,02,20,01,10,-1.40
2009,02,20,01,11,-1.40
2009,02,20,01,12,-1.40
2009,02,20,01,13,-1.40
2009,02,20,01,14,-1.40
2009,02,20,01,15,-1.40
2009,02,20,01,16,-1.40
2009,02,20,01,17,-1.40
2009,02,20,01,18,-1.40
2009,02,20,01,19,-1.40
2009,02,20,01,20,-1.50
2009,02,20,01,21,-1.50
2009,02,20,01,22,-1.50
2009,02,20,01,23,-1.60
2009,02,20,01,24,-1.60
2009,02,20,01,25,-1.60
2009,02,20,01,26,-1.70
2009,02,20,01,27,-1.70
2009,02,20,01,28,-1.70
2009,02,20,01,29,-1.70
2009,02,20,01,30,-1.70
2009,02,20,01,31,-1.80
2009,02,20,01,32,-1.80
2009,02,20,01,33,-1.80
2009,02,20,01,34,-1.80
2009,02,20,01,35,-1.80
2009,02,20,01,36,-1.80
2009,02,20,01,37,-1.80
2009,02,20,01,38,-1.80
2009,02,20,01,39,-1.80
2009,02,20,01,40,-1.80
2009,02,20,01,41,-1.80
2009,02,20,01,42,-1.80
2009,02,20,01,43,-1.70
2009,02,20,01,44,-1.70
2009,02,20,01,45,-1.60
2009,02,20,01,46,-1.60
2009,02,20,01,47,-1.50
2009,02,20,01,48,-1.50
2009,02,20,01,49,-1.50
2009,02,20,01,50,-1.50
2009,02,20,01,51,-1.50
2009,02,20,01,52,-1.50
2009,02,20,01,53,-1.50
2009,02,20,01,54,-1.60
2009,02,20,01,55,-1.60
2009,02,20,01,56,-1.60
2009,02,20,01,57,-1.70
2009,02,20,01,58,-1.70
2009,02,20,01,59,-1.70
2009,02,20,02,00,-1.80
2009,02,20,02,01,-1.80
2009,02,20,02,02,-1.80
2009,02,20,02,03,-1.80
2009,02,20,02,04,-1.80
2009,02,20,02,05,-1.80
2009,02,20,02,06,-1.80
2009,02,20,02,07,-1.80
2009,02,20,02,08,-1.80
2009,02,20,02,09,-1.80
2009,02,20,02,10,-1.90
2009,02,20,02,11,-1.90
2009,02,20,02,12,-1.90
2009,02,20,02,13,-1.90
2009,02,20,02,14,-1.90
2009,02,20,02,15,-1.90
2009,02,20,02,16,-2.00
2009,02,20,02,17,-2.00
2009,02,20,02,18,-2.00
2009,02,20,02,19,-2.00
2009,02,20,02,20,-2.00
2009,02,20,02,21,-2.00
2009,02,20,02,22,-2.00
2009,02,20,02,23,-2.00
2009,02,20,02,24,-2.00
2009,02,20,02,25,-2.00
2009,02,20,02,26,-2.00
2009,02,20,02,27,-1.90
2009,02,20,02,28,-1.90
2009,02,20,02,29,-1.80
2009,02,20,02,30,-1.80
2009,02,20,02,31,-1.80
2009,02,20,02,32,-1.80
2009,02,20,02,33,-1.80
2009,02,20,02,34,-1.80
2009,02,20,02,35,-1.80
2009,02,20,02,36,-1.80
2009,02,20,02,37,-1.80
2009,02,20,02,38,-1.80
2009,02,20,02,39,-1.80
2009,02,20,02,40,-1.80
2009,02,20,02,41,-1.90
2009,02,20,02,42,-1.90
2009,02,20,02,43,-1.90
2009,02,20,02,44,-2.00
2009,02,20,02,45,-2.00
2009,02,20,02,46,-2.00
2009,02,20,02,47,-2.00
2009,02,20,02,48,-2.00
2009,02,20,02,49,-2.10
2009,02,20,02,50,-2.10
2009,02,20,02,51,-2.10
2009,02,20,02,52,-2.00
2009,02,20,02,53,-2.00
2009,02,20,02,54,-1.90
2009,02,20,02,55,-1.90
2009,02,20,02,56,-1.90
2009,02,20,02,57,-1.90
2009,02,20,02,58,-1.80
2009,02,20,02,59,-1.80
2009,02,20,03,00,-1.80
2009,02,20,03,01,-1.80
2009,02,20,03,02,-1.80
2009,02,20,03,03,-1.80
2009,02,20,03,04,-1.80
2009,02,20,03,05,-1.80
2009,02,20,03,06,-1.80
2009,02,20,03,07,-1.70
2009,02,20,03,08,-1.70
2009,02,20,03,09,-1.70
2009,02,20,03,10,-1.70
2009,02,20,03,11,-1.60
2009,02,20,03,12,-1.60
2009,02,20,03,13,-1.50
2009,02,20,03,14,-1.50
2009,02,20,03,15,-1.40
2009,02,20,03,16,-1.40
2009,02,20,03,17,-1.30
2009,02,20,03,18,-1.30
2009,02,20,03,19,-1.30
2009,02,20,03,20,-1.30
2009,02,20,03,21,-1.30
2009,02,20,03,22,-1.40
2009,02,20,03,23,-1.40
2009,02,20,03,24,-1.40
2009,02,20,03,25,-1.50
2009,02,20,03,26,-1.60
2009,02,20,03,27,-1.60
2009,02,20,03,28,-1.60
2009,02,20,03,29,-1.70
2009,02,20,03,30,-1.70
2009,02,20,03,31,-1.80
2009,02,20,03,32,-1.80
2009,02,20,03,33,-1.80
2009,02,20,03,34,-1.80
2009,02,20,03,35,-1.80
2009,02,20,03,36,-1.80
2009,02,20,03,37,-1.80
2009,02,20,03,38,-1.90
2009,02,20,03,39,-1.90
2009,02,20,03,40,-1.90
2009,02,20,03,41,-1.90
2009,02,20,03,42,-1.90
2009,02,20,03,43,-1.90
2009,02,20,03,44,-2.00
2009,02,20,03,45,-2.00
2009,02,20,03,46,-2.00
2009,02,20,03,47,-1.90
2009,02,20,03,48,-1.90
2009,02,20,03,49,-1.90
2009,02,20,03,50,-1.80
2009,02,20,03,51,-1.80
2009,02,20,03,52,-1.80
2009,02,20,03,53,-1.80
2009,02,20,03,54,-1.80
2009,02,20,03,55,-1.80
2009,02,20,03,56,-1.80
2009,02,20,03,57,-1.80
2009,02,20,03,58,-1.80
2009,02,20,03,59,-1.80
2009,02,20,04,00,-1.80
2009,02,20,04,01,-1.80
2009,02,20,04,02,-1.80
2009,02,20,04,03,-1.80
2009,02,20,04,04,-1.90
2009,02,20,04,05,-1.90
2009,02,20,04,06,-2.00
2009,02,20,04,07,-2.00
2009,02,20,04,08,-2.00
2009,02,20,04,09,-2.00
2009,02,20,04,10,-2.00
2009,02,20,04,11,-2.00
2009,02,20,04,12,-2.00
2009,02,20,04,13,-1.90
2009,02,20,04,14,-1.90
2009,02,20,04,15,-1.80
2009,02,20,04,16,-1.80
2009,02,20,04,17,-1.80
2009,02,20,04,18,-1.80
2009,02,20,04,19,-1.70
2009,02,20,04,20,-1.70
2009,02,20,04,21,-1.70
2009,02,20,04,22,-1.60
2009,02,20,04,23,-1.60
2009,02,20,04,24,-1.60
2009,02,20,04,25,-1.70
2009,02,20,04,26,-1.70
2009,02,20,04,27,-1.70
2009,02,20,04,28,-1.80
2009,02,20,04,29,-1.80
2009,02,20,04,30,-1.80
2009,02,20,04,31,-1.90
2009,02,20,04,32,-1.90
2009,02,20,04,33,-2.00
2009,02,20,04,34,-2.00
2009,02,20,04,35,-2.00
2009,02,20,04,36,-2.00
2009,02,20,04,37,-2.10
2009,02,20,04,38,-2.10
2009,02,20,04,39,-2.10
2009,02,20,04,40,-2.10
2009,02,20,04,41,-2.10
2009,02,20,04,42,-2.10
2009,02,20,04,43,-2.20
2009,02,20,04,44,-2.20
2009,02,20,04,45,-2.20
2009,02,20,04,46,-2.20
2009,02,20,04,47,-2.20
2009,02,20,04,48,-2.10
2009,02,20,04,49,-2.00
2009,02,20,04,50,-2.00
2009,02,20,04,51,-1.90
2009,02,20,04,52,-1.90
2009,02,20,04,53,-1.80
2009,02,20,04,54,-1.80
2009,02,20,04,55,-1.60
2009,02,20,04,56,-1.50
2009,02,20,04,57,-1.40
2009,02,20,04,58,-1.30
2009,02,20,04,59,-1.20
2009,02,20,05,00,-1.20
2009,02,20,05,01,-1.20
2009,02,20,05,02,-1.20
2009,02,20,05,03,-1.20
2009,02,20,05,04,-1.20
2009,02,20,05,05,-1.30
2009,02,20,05,06,-1.30
2009,02,20,05,07,-1.40
2009,02,20,05,08,-1.40
2009,02,20,05,09,-1.40
2009,02,20,05,10,-1.50
2009,02,20,05,11,-1.50
2009,02,20,05,12,-1.50
2009,02,20,05,13,-1.60
2009,02,20,05,14,-1.70
2009,02,20,05,15,-1.70
2009,02,20,05,16,-1.80
2009,02,20,05,17,-1.80
2009,02,20,05,18,-1.80
2009,02,20,05,19,-1.90
2009,02,20,05,20,-2.00
2009,02,20,05,21,-2.00
2009,02,20,05,22,-2.10
2009,02,20,05,23,-2.10
2009,02,20,05,24,-2.20
2009,02,20,05,25,-2.20
2009,02,20,05,26,-2.20
2009,02,20,05,27,-2.30
2009,02,20,05,28,-2.30
2009,02,20,05,29,-2.30
2009,02,20,05,30,-2.30
2009,02,20,05,31,-2.20
2009,02,20,05,32,-2.20
2009,02,20,05,33,-2.20
2009,02,20,05,34,-2.10
2009,02,20,05,35,-2.00
2009,02,20,05,36,-2.00
2009,02,20,05,37,-2.00
2009,02,20,05,38,-1.90
2009,02,20,05,39,-1.80
2009,02,20,05,40,-1.80
2009,02,20,05,41,-1.80
2009,02,20,05,42,-1.70
2009,02,20,05,43,-1.70
2009,02,20,05,44,-1.60
2009,02,20,05,45,-1.50
2009,02,20,05,46,-1.50
2009,02,20,05,47,-1.50
2009,02,20,05,48,-1.50
2009,02,20,05,49,-1.50
2009,02,20,05,50,-1.50
2009,02,20,05,51,-1.60
2009,02,20,05,52,-1.60
2009,02,20,05,53,-1.70
2009,02,20,05,54,-1.80
2009,02,20,05,55,-1.80
2009,02,20,05,56,-1.90
2009,02,20,05,57,-2.00
2009,02,20,05,58,-2.00
2009,02,20,05,59,-2.10
2009,02,20,06,00,-2.10
2009,02,20,06,01,-2.10
2009,02,20,06,02,-2.20
2009,02,20,06,03,-2.20
2009,02,20,06,04,-2.30
2009,02,20,06,05,-2.30
2009,02,20,06,06,-2.30
2009,02,20,06,07,-2.30
2009,02,20,06,08,-2.40
2009,02,20,06,09,-2.40
2009,02,20,06,10,-2.40
2009,02,20,06,11,-2.40
2009,02,20,06,12,-2.50
2009,02,20,06,13,-2.50
2009,02,20,06,14,-2.50
2009,02,20,06,15,-2.50
2009,02,20,06,16,-2.50
2009,02,20,06,17,-2.50
2009,02,20,06,18,-2.50
2009,02,20,06,19,-2.50
2009,02,20,06,20,-2.60
2009,02,20,06,21,-2.60
2009,02,20,06,22,-2.60
2009,02,20,06,23,-2.60
2009,02,20,06,24,-2.60
2009,02,20,06,25,-2.60
2009,02,20,06,26,-2.60
2009,02,20,06,27,-2.60
2009,02,20,06,28,-2.70
2009,02,20,06,29,-2.70
2009,02,20,06,30,-2.70
2009,02,20,06,31,-2.70
2009,02,20,06,32,-2.70
2009,02,20,06,33,-2.80
2009,02,20,06,34,-2.80
2009,02,20,06,35,-2.80
2009,02,20,06,36,-2.80
2009,02,20,06,37,-2.80
2009,02,20,06,38,-2.80
2009,02,20,06,39,-2.80
2009,02,20,06,40,-2.80
2009,02,20,06,41,-2.80
2009,02,20,06,42,-2.80
2009,02,20,06,43,-2.80
2009,02,20,06,44,-2.80
2009,02,20,06,45,-2.70
2009,02,20,06,46,-2.70
2009,02,20,06,47,-2.70
2009,02,20,06,48,-2.60
2009,02,20,06,49,-2.60
2009,02,20,06,50,-2.50
2009,02,20,06,51,-2.50
2009,02,20,06,52,-2.50
2009,02,20,06,53,-2.50
2009,02,20,06,54,-2.50
2009,02,20,06,55,-2.50
2009,02,20,06,56,-2.50
2009,02,20,06,57,-2.50
2009,02,20,06,58,-2.50
2009,02,20,06,59,-2.50
2009,02,20,07,00,-2.50
2009,02,20,07,01,-2.50
2009,02,20,07,02,-2.40
2009,02,20,07,03,-2.40
2009,02,20,07,04,-2.40
2009,02,20,07,05,-2.50
2009,02,20,07,06,-2.50
2009,02,20,07,07,-2.50
2009,02,20,07,08,-2.50
2009,02,20,07,09,-2.40
2009,02,20,07,10,-2.30
2009,02,20,07,11,-2.10
2009,02,20,07,12,-2.00
2009,02,20,07,13,-1.90
2009,02,20,07,14,-1.90
2009,02,20,07,15,-1.90
2009,02,20,07,16,-1.80
2009,02,20,07,17,-1.80
2009,02,20,07,18,-1.90
2009,02,20,07,19,-1.90
2009,02,20,07,20,-2.00
2009,02,20,07,21,-2.00
2009,02,20,07,22,-2.00
2009,02,20,07,23,-2.10
2009,02,20,07,24,-2.10
2009,02,20,07,25,-2.10
2009,02,20,07,26,-2.00
2009,02,20,07,27,-2.00
2009,02,20,07,28,-1.90
2009,02,20,07,29,-1.80
2009,02,20,07,30,-1.70
2009,02,20,07,31,-1.70
2009,02,20,07,32,-1.60
2009,02,20,07,33,-1.50
2009,02,20,07,34,-1.40
2009,02,20,07,35,-1.40
2009,02,20,07,36,-1.40
2009,02,20,07,37,-1.50
2009,02,20,07,38,-1.50
2009,02,20,07,39,-1.50
2009,02,20,07,40,-1.60
2009,02,20,07,41,-1.60
2009,02,20,07,42,-1.60
2009,02,20,07,43,-1.60
2009,02,20,07,44,-1.60
2009,02,20,07,45,-1.60
2009,02,20,07,46,-1.60
2009,02,20,07,47,-1.50
2009,02,20,07,48,-1.40
2009,02,20,07,49,-1.40
2009,02,20,07,50,-1.40
2009,02,20,07,51,-1.40
2009,02,20,07,52,-1.40
2009,02,20,07,53,-1.40
2009,02,20,07,54,-1.40
2009,02,20,07,55,-1.40
2009,02,20,07,56,-1.40
2009,02,20,07,57,-1.30
2009,02,20,07,58,-1.20
2009,02,20,07,59,-1.10
2009,02,20,08,00,-1.10
2009,02,20,08,01,-1.00
2009,02,20,08,02,-0.90
2009,02,20,08,03,-0.80
2009,02,20,08,04,-0.80
2009,02,20,08,05,-0.70
2009,02,20,08,06,-0.70
2009,02,20,08,07,-0.70
2009,02,20,08,08,-0.60
2009,02,20,08,09,-0.60
2009,02,20,08,10,-0.60
2009,02,20,08,11,-0.50
2009,02,20,08,12,-0.40
2009,02,20,08,13,-0.40
2009,02,20,08,14,-0.30
2009,02,20,08,15,-0.20
2009,02,20,08,16,-0.20
2009,02,20,08,17,-0.20
2009,02,20,08,18,-0.20
2009,02,20,08,19,-0.10
2009,02,20,08,20,-0.10
2009,02,20,08,21,-0.10
2009,02,20,08,22,-0.10
2009,02,20,08,23,-0.10
2009,02,20,08,24,-0.10
2009,02,20,08,25,0.00
2009,02,20,08,26,0.10
2009,02,20,08,27,0.20
2009,02,20,08,28,0.20
2009,02,20,08,29,0.30
2009,02,20,08,30,0.40
2009,02,20,08,31,0.50
2009,02,20,08,32,0.70
2009,02,20,08,33,0.80
2009,02,20,08,34,0.80
2009,02,20,08,35,0.90
2009,02,20,08,36,1.00
2009,02,20,08,37,1.00
2009,02,20,08,38,1.10
2009,02,20,08,39,1.10
2009,02,20,08,40,1.10
2009,02,20,08,41,1.20
2009,02,20,08,42,1.30
2009,02,20,08,43,1.40
2009,02,20,08,44,1.40
2009,02,20,08,45,1.50
2009,02,20,08,46,1.60
2009,02,20,08,47,1.70
2009,02,20,08,48,1.80
2009,02,20,08,49,1.80
2009,02,20,08,50,2.00
2009,02,20,08,51,2.10
2009,02,20,08,52,2.20
2009,02,20,08,53,2.40
2009,02,20,08,54,2.50
2009,02,20,08,55,2.60
2009,02,20,08,56,2.70
2009,02,20,08,57,2.80
2009,02,20,08,58,2.90
2009,02,20,08,59,3.10
2009,02,20,09,00,3.20
2009,02,20,09,01,3.30
2009,02,20,09,02,3.40
2009,02,20,09,03,3.60
2009,02,20,09,04,3.70
2009,02,20,09,05,3.80
2009,02,20,09,06,3.80
2009,02,20,09,07,3.80
2009,02,20,09,08,3.80
2009,02,20,09,09,3.80
2009,02,20,09,10,3.80
2009,02,20,09,11,3.70
2009,02,20,09,12,3.70
2009,02,20,09,13,3.70
2009,02,20,09,14,3.80
2009,02,20,09,15,4.00
2009,02,20,09,16,4.10
2009,02,20,09,17,4.20
2009,02,20,09,18,4.30
2009,02,20,09,19,4.30
2009,02,20,09,20,4.40
2009,02,20,09,21,4.50
2009,02,20,09,22,4.50
2009,02,20,09,23,4.60
2009,02,20,09,24,4.60
2009,02,20,09,25,4.70
2009,02,20,09,26,4.70
2009,02,20,09,27,4.80
2009,02,20,09,28,4.90
2009,02,20,09,29,4.90
2009,02,20,09,30,5.00
2009,02,20,09,31,5.10
2009,02,20,09,32,5.10
2009,02,20,09,33,5.10
2009,02,20,09,34,5.10
2009,02,20,09,35,5.10
2009,02,20,09,36,5.10
2009,02,20,09,37,5.20
2009,02,20,09,38,5.30
2009,02,20,09,39,5.30
2009,02,20,09,40,5.50
2009,02,20,09,41,5.50
2009,02,20,09,42,5.70
2009,02,20,09,43,5.80
2009,02,20,09,44,5.90
2009,02,20,09,45,6.00
2009,02,20,09,46,6.10
2009,02,20,09,47,6.20
2009,02,20,09,48,6.30
2009,02,20,09,49,6.40
2009,02,20,09,50,6.60
2009,02,20,09,51,6.60
2009,02,20,09,52,6.80
2009,02,20,09,53,6.80
2009,02,20,09,54,6.80
2009,02,20,09,55,6.90
2009,02,20,09,56,6.90
2009,02,20,09,57,7.00
2009,02,20,09,58,7.00
2009,02,20,09,59,7.00
2009,02,20,10,00,7.10
2009,02,20,10,01,7.10
2009,02,20,10,02,7.20
2009,02,20,10,03,7.20
2009,02,20,10,04,7.30
2009,02,20,10,05,7.30
2009,02,20,10,06,7.30
2009,02,20,10,07,7.30
2009,02,20,10,08,7.30
2009,02,20,10,09,7.30
2009,02,20,10,10,7.30
2009,02,20,10,11,7.30
2009,02,20,10,12,7.30
2009,02,20,10,13,7.30
2009,02,20,10,14,7.40
2009,02,20,10,15,7.40
2009,02,20,10,16,7.50
2009,02,20,10,17,7.50
2009,02,20,10,18,7.50
2009,02,20,10,19,7.40
2009,02,20,10,20,7.40
2009,02,20,10,21,7.40
2009,02,20,10,22,7.40
2009,02,20,10,23,7.50
2009,02,20,10,24,7.50
2009,02,20,10,25,7.50
2009,02,20,10,26,7.50
2009,02,20,10,27,7.50
2009,02,20,10,28,7.50
2009,02,20,10,29,7.50
2009,02,20,10,30,7.50
2009,02,20,10,31,7.50
2009,02,20,10,32,7.50
2009,02,20,10,33,7.50
2009,02,20,10,34,7.50
2009,02,20,10,35,7.60
2009,02,20,10,36,7.50
2009,02,20,10,37,7.50
2009,02,20,10,38,7.60
2009,02,20,10,39,7.60
2009,02,20,10,40,7.70
2009,02,20,10,41,7.70
2009,02,20,10,42,7.70
2009,02,20,10,43,7.70
2009,02,20,10,44,7.80
2009,02,20,10,45,7.80
2009,02,20,10,46,7.80
2009,02,20,10,47,7.80
2009,02,20,10,48,7.80
2009,02,20,10,49,7.80
2009,02,20,10,50,7.80
2009,02,20,10,51,7.80
2009,02,20,10,52,7.80
2009,02,20,10,53,7.80
2009,02,20,10,54,7.80
2009,02,20,10,55,7.80
2009,02,20,10,56,7.80
2009,02,20,10,57,7.90
2009,02,20,10,58,7.90
2009,02,20,10,59,7.90
2009,02,20,11,00,7.90
2009,02,20,11,01,8.00
2009,02,20,11,02,8.00
2009,02,20,11,03,8.10
2009,02,20,11,04,8.10
2009,02,20,11,05,8.10
2009,02,20,11,06,8.10
2009,02,20,11,07,8.10
2009,02,20,11,08,8.10
2009,02,20,11,09,8.10
2009,02,20,11,10,8.10
2009,02,20,11,11,8.10
2009,02,20,11,12,8.10
2009,02,20,11,13,8.10
2009,02,20,11,14,8.10
2009,02,20,11,15,8.00
2009,02,20,11,16,8.00
2009,02,20,11,17,8.00
2009,02,20,11,18,8.00
2009,02,20,11,19,8.10
2009,02,20,11,20,8.10
2009,02,20,11,21,8.20
2009,02,20,11,22,8.20
2009,02,20,11,23,8.20
2009,02,20,11,24,8.20
2009,02,20,11,25,8.30
2009,02,20,11,26,8.20
2009,02,20,11,27,8.30
2009,02,20,11,28,8.30
2009,02,20,11,29,8.30
2009,02,20,11,30,8.30
2009,02,20,11,31,8.30
2009,02,20,11,32,8.40
2009,02,20,11,33,8.50
2009,02,20,11,34,8.60
2009,02,20,11,35,8.60
2009,02,20,11,36,8.60
2009,02,20,11,37,8.60
2009,02,20,11,38,8.60
2009,02,20,11,39,8.70
2009,02,20,11,40,8.70
2009,02,20,11,41,8.70
2009,02,20,11,42,8.70
2009,02,20,11,43,8.70
2009,02,20,11,44,8.70
2009,02,20,11,45,8.70
2009,02,20,11,46,8.80
2009,02,20,11,47,8.90
2009,02,20,11,48,8.90
2009,02,20,11,49,9.00
2009,02,20,11,50,8.90
2009,02,20,11,51,8.90
2009,02,20,11,52,8.90
2009,02,20,11,53,9.00
2009,02,20,11,54,9.00
2009,02,20,11,55,9.00
2009,02,20,11,56,9.00
2009,02,20,11,57,9.00
2009,02,20,11,58,8.90
2009,02,20,11,59,8.90
2009,02,20,12,00,9.00
2009,02,20,12,01,9.00
2009,02,20,12,02,8.90
2009,02,20,12,03,8.90
2009,02,20,12,04,8.90
2009,02,20,12,05,8.90
2009,02,20,12,06,9.00
2009,02,20,12,07,9.00
2009,02,20,12,08,9.00
2009,02,20,12,09,9.10
2009,02,20,12,10,9.20
2009,02,20,12,11,9.20
2009,02,20,12,12,9.30
2009,02,20,12,13,9.30
2009,02,20,12,14,9.30
2009,02,20,12,15,9.30
2009,02,20,12,16,9.30
2009,02,20,12,17,9.30
2009,02,20,12,18,9.30
2009,02,20,12,19,9.30
2009,02,20,12,20,9.40
2009,02,20,12,21,9.40
2009,02,20,12,22,9.40
2009,02,20,12,23,9.40
2009,02,20,12,24,9.50
2009,02,20,12,25,9.50
2009,02,20,12,26,9.50
2009,02,20,12,27,9.60
2009,02,20,12,28,9.60
2009,02,20,12,29,9.60
2009,02,20,12,30,9.60
2009,02,20,12,31,9.60
2009,02,20,12,32,9.60
2009,02,20,12,33,9.70
2009,02,20,12,34,9.70
2009,02,20,12,35,9.70
2009,02,20,12,36,9.70
2009,02,20,12,37,9.60
2009,02,20,12,38,9.60
2009,02,20,12,39,9.60
2009,02,20,12,40,9.60
2009,02,20,12,41,9.60
2009,02,20,12,42,9.60
2009,02,20,12,43,9.60
2009,02,20,12,44,9.60
2009,02,20,12,45,9.60
2009,02,20,12,46,9.60
2009,02,20,12,47,9.60
2009,02,20,12,48,9.60
2009,02,20,12,49,9.70
2009,02,20,12,50,9.70
2009,02,20,12,51,9.70
2009,02,20,12,52,9.70
2009,02,20,12,53,9.70
2009,02,20,12,54,9.70
2009,02,20,12,55,9.70
2009,02,20,12,56,9.70
2009,02,20,12,57,9.70
2009,02,20,12,58,9.80
2009,02,20,12,59,9.80
2009,02,20,13,00,9.80
2009,02,20,13,01,9.80
2009,02,20,13,02,9.80
2009,02,20,13,03,9.80
2009,02,20,13,04,9.80
2009,02,20,13,05,9.80
2009,02,20,13,06,9.90
2009,02,20,13,07,9.90
2009,02,20,13,08,9.90
2009,02,20,13,09,10.00
2009,02,20,13,10,10.10
2009,02,20,13,11,10.10
2009,02,20,13,12,10.20
2009,02,20,13,13,10.30
2009,02,20,13,14,10.30
2009,02,20,13,15,10.40
2009,02,20,13,16,10.40
2009,02,20,13,17,10.40
2009,02,20,13,18,10.40
2009,02,20,13,19,10.40
2009,02,20,13,20,10.40
2009,02,20,13,21,10.40
2009,02,20,13,22,10.40
2009,02,20,13,23,10.40
2009,02,20,13,24,10.30
2009,02,20,13,25,10.20
2009,02,20,13,26,10.20
2009,02,20,13,27,10.10
2009,02,20,13,28,10.10
2009,02,20,13,29,10.00
2009,02,20,13,30,10.10
2009,02,20,13,31,10.10
2009,02,20,13,32,10.10
2009,02,20,13,33,10.20
2009,02,20,13,34,10.10
2009,02,20,13,35,10.10
2009,02,20,13,36,10.10
2009,02,20,13,37,10.10
2009,02,20,13,38,10.20
2009,02,20,13,39,10.20
2009,02,20,13,40,10.10
2009,02,20,13,41,10.10
2009,02,20,13,42,10.10
2009,02,20,13,43,10.10
2009,02,20,13,44,10.10
2009,02,20,13,45,10.10
2009,02,20,13,46,10.10
2009,02,20,13,47,10.10
2009,02,20,13,48,10.10
2009,02,20,13,49,10.10
2009,02,20,13,50,10.20
2009,02,20,13,51,10.10
2009,02,20,13,52,10.10
2009,02,20,13,53,10.10
2009,02,20,13,54,10.10
2009,02,20,13,55,10.10
2009,02,20,13,56,10.10
2009,02,20,13,57,10.00
2009,02,20,13,58,9.90
2009,02,20,13,59,9.90
2009,02,20,14,00,9.90
2009,02,20,14,01,9.90
2009,02,20,14,02,9.90
2009,02,20,14,03,9.90
2009,02,20,14,04,9.90
2009,02,20,14,05,9.90
2009,02,20,14,06,10.10
2009,02,20,14,07,10.10
2009,02,20,14,08,10.10
2009,02,20,14,09,10.20
2009,02,20,14,10,10.10
2009,02,20,14,11,10.10
2009,02,20,14,12,10.10
2009,02,20,14,13,10.10
2009,02,20,14,14,10.10
2009,02,20,14,15,10.10
2009,02,20,14,16,10.10
2009,02,20,14,17,10.10
2009,02,20,14,18,10.20
2009,02,20,14,19,10.20
2009,02,20,14,20,10.20
2009,02,20,14,21,10.10
2009,02,20,14,22,10.10
2009,02,20,14,23,10.00
2009,02,20,14,24,9.90
2009,02,20,14,25,9.90
2009,02,20,14,26,9.90
2009,02,20,14,27,9.90
2009,02,20,14,28,9.90
2009,02,20,14,29,9.90
2009,02,20,14,30,10.00
2009,02,20,14,31,10.10
2009,02,20,14,32,10.10
2009,02,20,14,33,10.10
2009,02,20,14,34,10.20
2009,02,20,14,35,10.20
2009,02,20,14,36,10.20
2009,02,20,14,37,10.30
2009,02,20,14,38,10.30
2009,02,20,14,39,10.30
2009,02,20,14,40,10.30
2009,02,20,14,41,10.20
2009,02,20,14,42,10.20
2009,02,20,14,43,10.10
2009,02,20,14,44,10.10
2009,02,20,14,45,10.10
2009,02,20,14,46,10.10
2009,02,20,14,47,10.10
2009,02,20,14,48,10.10
2009,02,20,14,49,10.10
2009,02,20,14,50,10.10
2009,02,20,14,51,10.10
2009,02,20,14,52,10.10
2009,02,20,14,53,10.10
2009,02,20,14,54,10.10
2009,02,20,14,55,10.10
2009,02,20,14,56,10.10
2009,02,20,14,57,10.10
2009,02,20,14,58,10.10
2009,02,20,14,59,10.10
2009,02,20,15,00,10.10
2009,02,20,15,01,10.10
2009,02,20,15,02,10.10
2009,02,20,15,03,10.10
2009,02,20,15,04,10.10
2009,02,20,15,05,10.10
2009,02,20,15,06,10.10
2009,02,20,15,07,10.00
2009,02,20,15,08,9.90
2009,02,20,15,09,9.90
2009,02,20,15,10,9.90
2009,02,20,15,11,9.90
2009,02,20,15,12,9.90
2009,02,20,15,13,10.00
2009,02,20,15,14,10.10
2009,02,20,15,15,10.10
2009,02,20,15,16,10.10
2009,02,20,15,17,10.00
2009,02,20,15,18,9.90
2009,02,20,15,19,9.90
2009,02,20,15,20,9.90
2009,02,20,15,21,9.90
2009,02,20,15,22,9.90
2009,02,20,15,23,9.90
2009,02,20,15,24,9.90
2009,02,20,15,25,9.90
2009,02,20,15,26,9.90
2009,02,20,15,27,9.90
2009,02,20,15,28,9.90
2009,02,20,15,29,9.90
2009,02,20,15,30,9.90
2009,02,20,15,31,9.90
2009,02,20,15,32,9.90
2009,02,20,15,33,9.90
2009,02,20,15,34,9.90
2009,02,20,15,35,9.90
2009,02,20,15,36,9.90
2009,02,20,15,37,9.90
2009,02,20,15,38,9.90
2009,02,20,15,39,9.90
2009,02,20,15,40,9.90
2009,02,20,15,41,9.90
2009,02,20,15,42,9.90
2009,02,20,15,43,9.90
2009,02,20,15,44,9.90
2009,02,20,15,45,9.90
2009,02,20,15,46,9.90
2009,02,20,15,47,9.90
2009,02,20,15,48,9.80
2009,02,20,15,49,9.80
2009,02,20,15,50,9.80
2009,02,20,15,51,9.80
2009,02,20,15,52,9.80
2009,02,20,15,53,9.70
2009,02,20,15,54,9.70
2009,02,20,15,55,9.70
2009,02,20,15,56,9.70
2009,02,20,15,57,9.70
2009,02,20,15,58,9.70
2009,02,20,15,59,9.70
2009,02,20,16,00,9.70
2009,02,20,16,01,9.70
2009,02,20,16,02,9.70
2009,02,20,16,03,9.70
2009,02,20,16,04,9.70
2009,02,20,16,05,9.70
2009,02,20,16,06,9.70
2009,02,20,16,07,9.70
2009,02,20,16,08,9.60
2009,02,20,16,09,9.60
2009,02,20,16,10,9.60
2009,02,20,16,11,9.60
2009,02,20,16,12,9.60
2009,02,20,16,13,9.60
2009,02,20,16,14,9.60
2009,02,20,16,15,9.60
2009,02,20,16,16,9.60
2009,02,20,16,17,9.60
2009,02,20,16,18,9.60
2009,02,20,16,19,9.60
2009,02,20,16,20,9.60
2009,02,20,16,21,9.60
2009,02,20,16,22,9.60
2009,02,20,16,23,9.50
2009,02,20,16,24,9.50
2009,02,20,16,25,9.50
2009,02,20,16,26,9.50
2009,02,20,16,27,9.50
2009,02,20,16,28,9.50
2009,02,20,16,29,9.50
2009,02,20,16,30,9.50
2009,02,20,16,31,9.50
2009,02,20,16,32,9.40
2009,02,20,16,33,9.40
2009,02,20,16,34,9.40
2009,02,20,16,35,9.40
2009,02,20,16,36,9.40
2009,02,20,16,37,9.40
2009,02,20,16,38,9.30
2009,02,20,16,39,9.30
2009,02,20,16,40,9.30
2009,02,20,16,41,9.30
2009,02,20,16,42,9.30
2009,02,20,16,43,9.30
2009,02,20,16,44,9.30
2009,02,20,16,45,9.30
2009,02,20,16,46,9.30
2009,02,20,16,47,9.30
2009,02,20,16,48,9.30
2009,02,20,16,49,9.30
2009,02,20,16,50,9.30
2009,02,20,16,51,9.30
2009,02,20,16,52,9.30
2009,02,20,16,53,9.30
2009,02,20,16,54,9.20
2009,02,20,16,55,9.20
2009,02,20,16,56,9.20
2009,02,20,16,57,9.20
2009,02,20,16,58,9.20
2009,02,20,16,59,9.20
2009,02,20,17,00,9.10
2009,02,20,17,01,9.10
2009,02,20,17,02,9.00
2009,02,20,17,03,9.00
2009,02,20,17,04,8.90
2009,02,20,17,05,8.90
2009,02,20,17,06,8.90
2009,02,20,17,07,8.80
2009,02,20,17,08,8.80
2009,02,20,17,09,8.80
2009,02,20,17,10,8.80
2009,02,20,17,11,8.80
2009,02,20,17,12,8.70
2009,02,20,17,13,8.70
2009,02,20,17,14,8.70
2009,02,20,17,15,8.70
2009,02,20,17,16,8.70
2009,02,20,17,17,8.60
2009,02,20,17,18,8.60
2009,02,20,17,19,8.50
2009,02,20,17,20,8.50
2009,02,20,17,21,8.40
2009,02,20,17,22,8.40
2009,02,20,17,23,8.40
2009,02,20,17,24,8.30
2009,02,20,17,25,8.30
2009,02,20,17,26,8.20
2009,02,20,17,27,8.20
2009,02,20,17,28,8.10
2009,02,20,17,29,8.00
2009,02,20,17,30,7.90
2009,02,20,17,31,7.80
2009,02,20,17,32,7.80
2009,02,20,17,33,7.70
2009,02,20,17,34,7.60
2009,02,20,17,35,7.50
2009,02,20,17,36,7.50
2009,02,20,17,37,7.40
2009,02,20,17,38,7.30